Location: Härggis
(46.9540°N, 8.4897°E)
Time: 21:11:49
(UTC+00:00)

UNK - Pass Details

Date: 27 May 2022
Orbit: 666 x 685 km, 98.2° (Epoch: 02 July)

Event Time Altitude Azimuth Distance (km) Brightness Sun altitude
Exits shadow 01:15:44 19° 158° (SSE) 1,602 5.3 -17.2°
Maximum altitude 01:19:05 78° 74° (ENE) 695 3.8 -16.9°
Drops below altitude 10° 01:23:43 10° 349° (N) 2,122 7.0 -16.6°
Sets 01:25:58 0° 348° (NNW) 3,044 7.9 -16.4°
